This is the latest recevied weather packets stored in our database for station/object OK2IGL-6. If no packets are shown the sender has not sent any weather packets the latest 10 day(s).
| Time | Temp. | Humidity | Pressure | Rain* | Wind** | Luminosity | Snow |
|---|---|---|---|---|---|---|---|
| 1777751460 | 12.22° C | 67% | 1016 hPa | - | - | - | - |
| 1777751031 | 12.78° C | 67% | 1017 hPa | - | - | - | - |
| 1777750601 | 13.33° C | 66% | 1017 hPa | - | - | - | - |
| 1777750171 | 13.33° C | 65% | 1016 hPa | - | - | - | - |
| 1777749742 | 13.89° C | 65% | 1016 hPa | - | - | - | - |
| 1777749313 | 14.44° C | 64% | 1017 hPa | - | - | - | - |
| 1777748883 | 14.44° C | 64% | 1016 hPa | - | - | - | - |
| 1777748454 | 14.44° C | 63% | 1016 hPa | - | - | - | - |
| 1777748024 | 15.56° C | 62% | 1016 hPa | - | - | - | - |
| 1777747595 | 15.56° C | 61% | 1017 hPa | - | - | - | - |
| 1777747165 | 15.56° C | 60% | 1016 hPa | - | - | - | - |
| 1777746736 | 16.67° C | 61% | 1016 hPa | - | - | - | - |
| 1777746145 | 16.67° C | 60% | 1017 hPa | - | - | - | - |
| 1777745716 | 17.22° C | 59% | 1016 hPa | - | - | - | - |
| 1777745286 | 17.78° C | 58% | 1016 hPa | - | - | - | - |
| 1777744857 | 18.89° C | 55% | 1015 hPa | - | - | - | - |
| 1777744427 | 18.89° C | 54% | 1015 hPa | - | - | - | - |
| 1777743998 | 20° C | 50% | 1016 hPa | - | - | - | - |
| 1777743569 | 20.56° C | 48% | 1016 hPa | - | - | - | - |
| 1777743139 | 21.11° C | 41% | 1016 hPa | - | - | - | - |
| 1777742710 | 21.11° C | 41% | 1016 hPa | - | - | - | - |
| 1777742280 | 21.67° C | 40% | 1016 hPa | - | - | - | - |
| 1777741851 | 21.67° C | 40% | 1016 hPa | - | - | - | - |
| 1777741421 | 22.22° C | 39% | 1016 hPa | - | - | - | - |
| 1777740992 | 22.22° C | 37% | 1016 hPa | - | - | - | - |
* Rain since midnight (hover to see other rain measurements)
** Current wind speed in m/s (hover to see current wind gust speed)